Погода в Гавриловке

Россия / Самарская область     52°27′23″N   51°20′11″E
темп.,
°C
ветер,
м/с
пор.,
м/с
влажн.,
%
обл.,
%
осадки,
мм/ч
давл.,
гПа
погр.,
м
6 марта, сб
сб601:00−10з119577 0.0 101321
04:00−11зюз128774 0.0 101421
07:00−11зюз239798 0.0 101421
10:00−9з359598 0.0 1015149
13:00−7з349268 0.0 1016206
16:00−7сз249384 0.0 1015199
19:00−9с1296100 0.0 101521
22:00−10ссв3388100 0.0 101465
7 марта, вс
вс701:00−12св3488100 0.0 101392
04:00−13ссв3487100 0.0 101392
07:00−15ссв3486100 0.0 101249
10:00−14ссз238956 0.0 101485
13:00−11з35850 0.0 1013214
16:00−11зюз47900 0.0 1013237
19:00−13юз59960 0.0 1013149
22:00−12ююз6119440 0.0 1012259
8 марта, пн
пн801:00−8ююз81688100 0.0 1009552
04:00−7ююз101791100 0.2 1005753
07:00−5юз101794100 0.9 1004898
10:00−3юз91491100 1.8 1005825
13:00−2юз71193100 0.3 1005819
16:00−2ююз91495100 1.5 1003982
19:00−2юз91594100 0.9 1001941
22:00−2юз111794100 1.5 10021140
9 марта, вт
вт901:00−10зюз7158592 0.3 1004387
04:00−12зюз7149368 0.3 1006344
07:00−13зюз6149576 0.0 1009277
10:00−13зюз6109479 0.0 1011291
13:00−10зюз599391 0.0 1012368
16:00−10зюз489391 0.0 1012444
19:00−13зюз349895 0.0 101242
22:00−14зюз349897 0.1 101456
10 марта, ср
ср1001:00−14з3397100 0.1 101367
04:00−15сз2397100 0.2 101425
07:00−16зсз3697100 0.1 1015177
10:00−18зсз479683 0.1 1016228
13:00−16зсз579598 0.0 1017302
16:00−15з589393 0.1 1016403
19:00−19з479991 0.0 1017105
22:00−21з349951 0.0 101830